Back to catalog

ASTRA 2F

AliveCommunicationsGEO
NORAD 38778·PAYLOAD·🇱🇺 Luxembourg

Launched Sep 28, 2012 from Guiana Space Centre

Loading…

TLE

FreshSource: CelesTrak SupGP

Epoch: Sep 13, 2026, 23:30 UTC

1 38778C 12051A   26256.97916667  .00000240  00000+0  00000+0 0  2564
2 38778   0.0639 255.3200 0004281 308.5753 169.7506  1.00272716    17

Track ASTRA 2F in real time with AllMySat

Download on the App Store